Vorticity
5 3 2 7 2 5 1 2 2 2 1 0 2 5 5 2 3 3 5 4 6 9 8 5 4 4 4 5 5 6 7 8 8 7 6 6 8 6 5 4 5 5 5
5 3 2 2 7 1 5 2 2 2 2 2 2 4 4 2 3 4 4 3 4 7 8 7 5 5 2 1 2 6 7 8 8 7 7 6 6 5 5 4 4 5 4
7 8 6 8 5 6 5 4 2 3 2 3 2 3 3 3 3 4 5 5 4 6 7 7 5 6 1 1 2 3 5 7 8 8 7 6 5 7 11 7 5 5 3
2 3 8 6 8 6 3 5 3 3 4 3 3 3 3 3 2 3 4 4 5 6 7 7 6 5 3 0 2 2 4 5 7 8 9 5 6 0 2 5 8 7 4
1 1 3 6 3 12 11 5 4 6 4 5 5 5 5 2 2 3 4 4 4 3 4 6 8 4 5 1 2 2 3 4 5 7 7 7 7 6 5 5 6 3 5
3 3 6 8 6 4 3 5 9 5 5 3 3 2 2 1 4 4 3 1 2 3 5 5 5 6 5 6 5 2 3 3 4 6 6 7 7 8 7 6 6 6 6
7 7 8 8 7 5 3 1 2 5 6 6 5 4 3 5 3 1 3 3 2 3 2 3 5 5 5 4 6 3 2 3 3 4 5 6 7 6 7 7 6 6 6
7 8 7 6 6 8 8 5 5 1 0 1 3 4 4 3 3 2 2 2 2 3 3 2 4 5 4 6 4 6 2 3 3 3 4 5 6 7 7 7 6 6 6
8 7 7 8 8 8 8 9 9 8 6 3 2 2 2 2 2 2 1 1 2 1 3 3 4 4 5 4 5 5 7 2 2 3 3 4 5 6 6 7 7 6 6
3 3 3 3 3 4 4 4 6 7 9 10 9 9 8 8 7 7 7 8 8 8 5 3 3 5 5 5 5 3 5 9 1 1 3 3 3 4 6 7 7 7 7
2 4 4 5 5 5 5 5 5 5 4 4 5 5 6 6 6 7 7 7 6 5 8 5 3 4 4 5 5 5 5 5 7 6 2 3 3 3 3 5 7 7 7
4 5 6 6 5 5 6 6 6 6 6 7 7 6 5 5 5 5 6 6 7 5 2 5 6 5 4 4 5 4 4 6 6 2 2 3 3 3 3 3 4 6 6
6 6 6 6 6 6 6 6 6 5 5 5 5 5 5 5 5 6 6 7 6 7 6 5 4 4 6 4 4 4 4 4 5 6 6 6 5 3 4 4 3 4 4
5 5 7 6 6 6 6 7 7 7 7 8 8 8 8 7 7 6 5 5 5 6 8 10 7 4 4 3 3 3 4 4 4 4 5 6 6 5 1 4 3 3 3
5 5 5 6 7 8 9 10 10 10 10 10 10 10 9 8 8 8 8 8 7 6 6 8 9 12 8 5 5 4 3 3 5 4 5 6 6 6 5 3 3 3 3
6 6 7 9 10 10 10 9 8 8 10 11 12 13 14 14 14 14 14 15 16 15 14 12 8 8 9 10 12 4 4 3 5 7 7 6 6 5 5 6 4 4 3
5 7 8 8 9 8 8 8 8 10 10 11 11 9 7 8 12 14 14 13 12 12 11 10 8 10 12 11 10 9 11 10 4 7 6 5 7 7 2 4 4 6 5
9 9 9 8 7 6 6 7 6 9 10 7 7 10 15 15 9 6 6 7 8 4 0 4 8 9 10 11 12 12 8 12 10 3 6 9 4 4 5 5 5 5 4
9 9 8 6 6 6 7 8 10 12 7 7 10 10 8 5 7 9 11 13 10 9 13 17 17 17 17 16 13 12 13 10 10 6 4 6 8 7 12 11 4 5 2
8 6 6 6 8 8 11 14 15 8 7 6 7 10 9 8 7 4 7 9 8 13 10 20 16 11 12 13 18 17 13 15 7 10 5 5 4 5 5 17 9 1 4
6 5 5 6 7 11 15 15 8 7 6 9 10 8 8 8 8 12 11 8 9 6 10 13 10 13 21 22 18 20 24 21 19 6 13 13 19 4 15 -7 1 18 18
4 4 6 7 9 12 12 10 6 4 8 9 5 6 10 10 12 12 13 11 9 10 4 7 3 8 16 23 15 13 23 22 24 15 2 11 17 -8 19 3 7 5 6
4 5 4 6 10 11 12 9 6 7 8 8 6 7 8 8 10 9 7 11 3 3 12 10 3 4 11 19 22 19 22 23 32 21 21 -5 19 -4 -2 20 4 6 -6
3 3 5 10 12 11 10 9 7 8 8 8 6 6 8 11 9 10 9 11 15 11 6 10 15 16 27 21 22 28 13 15 8 18 10 2 17 36 2 2 14 11 6
4 7 12 12 10 10 9 8 9 8 9 7 8 11 12 13 12 7 8 7 6 10 14 12 8 23 19 14 17 32 10 5 23 20 18 5 12 3 9 16 24 13 14
12 8 12 11 9 8 9 10 10 10 9 9 10 10 9 9 11 10 9 6 8 6 7 8 17 9 14 17 18 15 14 11 24 9 14 12 1 -34 0 -4 7 -7 4
Height
3188 3188 3188 3188 3189 3189 3189 3188 3188 3189 3188 3188 3187 3187 3186 3186 3185 3185 3184 3183 3182 3181 3181 3180 3179 3179 3179 3178 3177 3176 3174 3173 3172 3172 3172 3173 3173 3173 3173 3173 3174 3174 3174
3186 3187 3187 3187 3187 3188 3188 3188 3188 3188 3187 3187 3187 3186 3186 3185 3185 3184 3183 3182 3182 3181 3180 3180 3180 3179 3179 3178 3177 3176 3175 3174 3173 3172 3172 3172 3172 3172 3173 3173 3173 3173 3173
3185 3186 3186 3185 3185 3186 3186 3187 3186 3186 3186 3186 3186 3186 3185 3184 3183 3183 3183 3182 3181 3180 3179 3179 3178 3178 3178 3178 3177 3176 3175 3174 3173 3172 3172 3171 3171 3171 3171 3171 3171 3172 3172
3184 3184 3184 3184 3184 3184 3183 3184 3184 3184 3184 3184 3184 3184 3183 3182 3182 3182 3181 3181 3180 3179 3179 3178 3178 3177 3177 3176 3176 3176 3175 3174 3173 3172 3172 3171 3170 3170 3170 3170 3169 3170 3170
3182 3182 3182 3182 3181 3181 3182 3182 3182 3182 3182 3181 3181 3181 3181 3181 3180 3179 3179 3178 3178 3177 3177 3177 3176 3176 3175 3175 3175 3175 3174 3173 3172 3171 3171 3170 3170 3169 3169 3169 3168 3168 3169
3181 3180 3180 3180 3180 3179 3179 3179 3179 3179 3179 3179 3179 3179 3179 3178 3178 3177 3176 3176 3176 3175 3175 3175 3174 3174 3174 3173 3174 3173 3173 3173 3171 3170 3169 3169 3169 3168 3168 3167 3167 3167 3167
3179 3178 3178 3178 3178 3177 3177 3177 3177 3176 3176 3176 3176 3176 3176 3176 3175 3175 3174 3173 3173 3173 3172 3172 3172 3172 3172 3171 3171 3171 3171 3171 3170 3169 3168 3167 3166 3166 3166 3166 3165 3165 3165
3177 3177 3176 3176 3176 3175 3175 3174 3173 3173 3173 3173 3172 3172 3172 3172 3172 3172 3171 3170 3170 3170 3169 3169 3169 3169 3169 3169 3168 3168 3168 3168 3168 3167 3166 3165 3164 3164 3163 3163 3163 3163 3163
3175 3175 3174 3174 3173 3172 3172 3171 3170 3170 3169 3169 3168 3168 3167 3167 3167 3167 3167 3166 3166 3166 3166 3165 3165 3165 3165 3165 3164 3164 3164 3164 3164 3164 3164 3163 3162 3161 3161 3160 3160 3160 3161
3173 3173 3172 3171 3170 3169 3169 3168 3167 3166 3165 3165 3164 3163 3162 3162 3161 3161 3162 3161 3161 3161 3161 3161 3161 3161 3160 3161 3160 3159 3159 3160 3162 3160 3160 3160 3159 3159 3158 3158 3157 3157 3157
3172 3171 3169 3168 3167 3166 3165 3164 3163 3162 3161 3160 3159 3158 3158 3157 3156 3155 3155 3155 3154 3154 3154 3155 3155 3155 3154 3154 3155 3155 3154 3155 3155 3156 3156 3156 3155 3155 3155 3155 3154 3154 3153
3169 3167 3166 3165 3164 3162 3161 3160 3159 3158 3157 3155 3154 3153 3152 3151 3150 3149 3149 3148 3147 3147 3148 3147 3148 3148 3147 3148 3149 3148 3147 3148 3148 3149 3149 3150 3150 3151 3151 3150 3150 3150 3150
3165 3164 3163 3162 3160 3159 3157 3155 3154 3153 3151 3150 3148 3146 3146 3145 3144 3142 3141 3140 3140 3139 3139 3139 3140 3140 3141 3141 3141 3141 3141 3141 3141 3141 3142 3143 3144 3144 3145 3146 3146 3145 3145
3161 3160 3158 3157 3156 3154 3152 3151 3149 3147 3146 3144 3142 3140 3139 3137 3136 3135 3134 3133 3133 3133 3132 3132 3131 3131 3132 3133 3133 3133 3133 3133 3133 3133 3134 3135 3136 3137 3138 3139 3140 3140 3141
3157 3155 3154 3153 3151 3149 3147 3145 3143 3141 3140 3138 3137 3134 3132 3130 3129 3128 3127 3126 3125 3124 3123 3123 3123 3123 3123 3124 3124 3124 3125 3125 3125 3125 3125 3126 3127 3128 3130 3131 3132 3133 3134
3153 3151 3150 3148 3146 3144 3142 3140 3138 3136 3134 3132 3130 3128 3125 3123 3121 3120 3118 3117 3116 3115 3114 3113 3112 3112 3113 3113 3114 3115 3115 3115 3116 3117 3118 3118 3118 3119 3121 3123 3125 3126 3126
3149 3147 3145 3144 3142 3140 3138 3135 3132 3129 3127 3125 3122 3120 3118 3115 3113 3111 3110 3109 3108 3106 3105 3104 3102 3101 3100 3100 3100 3101 3103 3105 3104 3106 3108 3109 3110 3110 3112 3114 3116 3118 3119
3145 3142 3140 3139 3137 3135 3132 3129 3126 3123 3121 3118 3116 3113 3110 3108 3106 3104 3103 3102 3100 3098 3097 3095 3092 3090 3088 3088 3088 3087 3089 3091 3094 3095 3096 3098 3100 3101 3103 3105 3107 3109 3112
3140 3138 3136 3134 3132 3129 3126 3122 3119 3117 3114 3112 3109 3107 3105 3102 3100 3099 3097 3095 3093 3090 3087 3084 3081 3078 3076 3075 3073 3074 3075 3077 3080 3083 3085 3087 3089 3091 3092 3094 3096 3098 3101
3135 3134 3132 3129 3126 3123 3120 3116 3114 3111 3108 3106 3103 3102 3099 3098 3096 3093 3090 3087 3084 3081 3079 3075 3071 3067 3063 3060 3059 3058 3059 3063 3066 3069 3073 3076 3079 3081 3082 3083 3086 3088 3090
3130 3128 3126 3122 3119 3117 3114 3112 3109 3107 3104 3101 3098 3096 3094 3091 3088 3085 3083 3079 3075 3072 3069 3064 3059 3056 3053 3049 3045 3044 3043 3046 3051 3056 3060 3064 3067 3071 3071 3074 3075 3073 3076
3125 3122 3120 3117 3115 3112 3109 3107 3106 3103 3100 3097 3094 3091 3087 3084 3082 3079 3075 3072 3068 3065 3061 3057 3052 3046 3043 3040 3035 3033 3030 3033 3039 3045 3050 3054 3057 3058 3061 3064 3065 3068 3069
3120 3118 3116 3113 3110 3107 3104 3102 3100 3098 3095 3092 3089 3085 3082 3080 3078 3073 3069 3066 3062 3058 3054 3050 3045 3039 3033 3032 3029 3025 3024 3024 3030 3035 3041 3041 3045 3047 3048 3050 3056 3058 3061
3116 3114 3111 3108 3105 3102 3100 3097 3095 3092 3090 3087 3084 3082 3079 3077 3073 3069 3065 3061 3058 3054 3049 3044 3039 3034 3027 3023 3021 3020 3021 3021 3023 3026 3032 3037 3038 3039 3043 3046 3047 3050 3052
3112 3109 3106 3103 3101 3098 3095 3091 3089 3086 3084 3081 3079 3076 3073 3070 3067 3063 3060 3057 3053 3049 3044 3039 3035 3028 3022 3020 3016 3015 3017 3015 3014 3019 3023 3028 3032 3033 3036 3038 3040 3042 3043
3108 3105 3102 3099 3096 3093 3089 3087 3084 3081 3079 3077 3075 3072 3069 3065 3061 3059 3055 3052 3048 3044 3040 3035 3030 3025 3020 3017 3014 3013 3013 3013 3011 3014 3017 3020 3025 3028 3028 3028 3029 3030 3031